When you browse on this site, cookies collect data to enhance your experience and personalize the content and advertising you see.
Visit our Privacy Policy to learn more. By continuing to use the site, you agree to this use of cookies and data.
  • In Hungary
  • List of Countries
  • For 7 days
  • Water Temperature
  • Satellite Maps
  • Weather Map
  • News
  • Weather Widgets
  • user-avatar
    Login

    Hourly Weather Porecatu

    Today, 18 November, Sunday

    Time Temperature Precipitation Wind Pressure Humidity
    00:00 +26°C° 0.6 mm 3 mps 723 mmHg 87%
    01:00 +25°C° 1.1 mm 3 mps 723 mmHg 88%
    02:00 +25°C° 1.1 mm 3 mps 723 mmHg 88%
    03:00 +25°C° 0 mm 3 mps 723 mmHg 88%
    04:00 +25°C° 0.7 mm 3 mps 723 mmHg 89%
    05:00 +25°C° 0.7 mm 3 mps 723 mmHg 89%
    06:00 +25°C° 0.7 mm 3 mps 722 mmHg 90%
    07:00 +26°C° 0.8 mm 4 mps 723 mmHg 87%
    08:00 +27°C° 0.8 mm 4 mps 723 mmHg 85%
    09:00 +27°C° 0.8 mm 4 mps 723 mmHg 82%
    10:00 +28°C° 3.3 mm 4 mps 723 mmHg 81%
    11:00 +28°C° 3.3 mm 4 mps 723 mmHg 80%
    12:00 +29°C° 3.3 mm 3 mps 723 mmHg 79%
    13:00 +28°C° 2.3 mm 3 mps 722 mmHg 80%
    14:00 +28°C° 2.3 mm 3 mps 722 mmHg 82%
    15:00 +27°C° 2.3 mm 2 mps 722 mmHg 84%
    16:00 +27°C° 1.1 mm 2 mps 722 mmHg 85%
    17:00 +27°C° 1.1 mm 2 mps 722 mmHg 86%
    18:00 +26°C° 1.1 mm 2 mps 722 mmHg 87%
    19:00 +26°C° 0.1 mm 2 mps 722 mmHg 89%
    20:00 +25°C° 0.1 mm 2 mps 722 mmHg 90%
    21:00 +25°C° 0.1 mm 2 mps 722 mmHg 91%
    22:00 +25°C° 0 mm 2 mps 722 mmHg 92%
    23:00 +24°C° 0 mm 1 mps 723 mmHg 93%

    Tomorrow, 19 November, Monday

    Time Temperature Precipitation Wind Pressure Humidity
    00:00 +24°C° 0 mm 1 mps 723 mmHg 93%
    01:00 +24°C° 0 mm 1 mps 722 mmHg 94%
    02:00 +24°C° 0 mm 1 mps 722 mmHg 94%
    03:00 +24°C° 0 mm 2 mps 722 mmHg 95%
    04:00 +23°C° 0.1 mm 2 mps 722 mmHg 94%
    05:00 +22°C° 0.1 mm 3 mps 722 mmHg 93%
    06:00 +22°C° 0.1 mm 4 mps 723 mmHg 92%
    07:00 +22°C° 0 mm 4 mps 723 mmHg 88%
    08:00 +23°C° 0 mm 5 mps 724 mmHg 84%
    09:00 +24°C° 0 mm 6 mps 724 mmHg 80%
    10:00 +26°C° 0 mm 6 mps 724 mmHg 75%
    11:00 +27°C° 0 mm 7 mps 724 mmHg 71%
    12:00 +28°C° 0 mm 7 mps 724 mmHg 67%
    13:00 +28°C° 0 mm 7 mps 724 mmHg 66%
    14:00 +29°C° 0 mm 7 mps 723 mmHg 65%
    15:00 +29°C° 0 mm 7 mps 723 mmHg 65%
    16:00 +28°C° 0 mm 6 mps 723 mmHg 67%
    17:00 +27°C° 0 mm 6 mps 723 mmHg 70%
    18:00 +24°C° 0 mm 6 mps 723 mmHg 72%
    19:00 +24°C° 0 mm 6 mps 723 mmHg 72%
    20:00 +23°C° 0 mm 6 mps 724 mmHg 72%
    21:00 +22°C° 0 mm 5 mps 725 mmHg 72%
    22:00 +21°C° 0 mm 6 mps 725 mmHg 73%
    23:00 +20°C° 0 mm 6 mps 726 mmHg 74%

    Day after tomorrow, 20 November, Tuesday

    Time Temperature Precipitation Wind Pressure Humidity
    00:00 +20°C° 0 mm 6 mps 726 mmHg 74%
    01:00 +19°C° 0 mm 6 mps 725 mmHg 75%
    02:00 +19°C° 0 mm 5 mps 725 mmHg 76%
    03:00 +17°C° 0 mm 5 mps 724 mmHg 78%
    04:00 +17°C° 0 mm 5 mps 724 mmHg 78%
    05:00 +17°C° 0 mm 5 mps 724 mmHg 79%
    06:00 +17°C° 0 mm 5 mps 724 mmHg 80%
    07:00 +20°C° 0 mm 6 mps 725 mmHg 76%
    08:00 +21°C° 0 mm 6 mps 725 mmHg 72%
    09:00 +23°C° 0 mm 6 mps 726 mmHg 68%
    10:00 +26°C° 0 mm 6 mps 726 mmHg 65%
    11:00 +27°C° 0 mm 5 mps 726 mmHg 62%
    12:00 +29°C° 0 mm 5 mps 726 mmHg 59%
    13:00 +29°C° 0 mm 5 mps 725 mmHg 60%
    14:00 +29°C° 0 mm 5 mps 724 mmHg 60%
    15:00 +29°C° 0 mm 5 mps 724 mmHg 61%
    16:00 +28°C° 0 mm 5 mps 723 mmHg 64%
    17:00 +27°C° 0 mm 5 mps 723 mmHg 68%
    18:00 +26°C° 0 mm 5 mps 723 mmHg 71%
    19:00 +25°C° 0 mm 5 mps 724 mmHg 72%
    20:00 +23°C° 0 mm 6 mps 724 mmHg 74%
    21:00 +22°C° 0 mm 6 mps 725 mmHg 75%
    22:00 +21°C° 0 mm 6 mps 725 mmHg 76%
    23:00 +21°C° 0 mm 6 mps 725 mmHg 77%

    21 November, Wednesday

    Time Temperature Precipitation Wind Pressure Humidity
    00:00 +20°C° 0 mm 6 mps 725 mmHg 78%
    01:00 +20°C° 0 mm 6 mps 725 mmHg 79%
    02:00 +20°C° 0 mm 5 mps 724 mmHg 80%
    03:00 +20°C° 0 mm 5 mps 724 mmHg 81%
    04:00 +20°C° 0 mm 5 mps 724 mmHg 81%
    05:00 +20°C° 0 mm 5 mps 724 mmHg 82%
    06:00 +20°C° 0 mm 5 mps 725 mmHg 82%
    07:00 +21°C° 0 mm 5 mps 725 mmHg 81%
    08:00 +22°C° 0 mm 5 mps 725 mmHg 80%
    09:00 +23°C° 0 mm 5 mps 726 mmHg 79%
    10:00 +25°C° 0 mm 5 mps 726 mmHg 78%
    11:00 +26°C° 0 mm 5 mps 725 mmHg 77%
    12:00 +27°C° 0 mm 4 mps 725 mmHg 76%
    13:00 +27°C° 0.2 mm 5 mps 725 mmHg 75%
    14:00 +27°C° 0.2 mm 5 mps 724 mmHg 74%
    15:00 +27°C° 0.2 mm 5 mps 723 mmHg 74%
    16:00 +27°C° 0.1 mm 5 mps 723 mmHg 75%
    17:00 +26°C° 0.1 mm 5 mps 723 mmHg 77%
    18:00 +26°C° 0.1 mm 5 mps 723 mmHg 79%
    19:00 +25°C° 0 mm 5 mps 723 mmHg 81%
    20:00 +23°C° 0 mm 5 mps 724 mmHg 83%
    21:00 +23°C° 0 mm 4 mps 724 mmHg 86%
    22:00 +23°C° 0.1 mm 4 mps 724 mmHg 86%
    23:00 +22°C° 0.1 mm 4 mps 724 mmHg 86%

    22 November, Thursday

    Time Temperature Precipitation Wind Pressure Humidity
    00:00 +22°C° 0.1 mm 4 mps 724 mmHg 86%
    01:00 +22°C° 0 mm 4 mps 724 mmHg 87%
    02:00 +22°C° 0 mm 4 mps 723 mmHg 88%
    03:00 +21°C° 0 mm 4 mps 723 mmHg 89%
    04:00 +21°C° 0 mm 4 mps 723 mmHg 89%
    05:00 +21°C° 0 mm 4 mps 723 mmHg 88%
    06:00 +21°C° 0 mm 4 mps 724 mmHg 87%
    07:00 +22°C° 0 mm 4 mps 724 mmHg 82%
    08:00 +25°C° 0 mm 4 mps 725 mmHg 76%
    09:00 +27°C° 0 mm 4 mps 725 mmHg 71%
    10:00 +27°C° 0.7 mm 4 mps 725 mmHg 69%
    11:00 +28°C° 0.7 mm 5 mps 725 mmHg 68%
    12:00 +29°C° 0.7 mm 5 mps 725 mmHg 66%
    13:00 +29°C° 0.6 mm 5 mps 724 mmHg 65%
    14:00 +30°C° 0.6 mm 4 mps 723 mmHg 63%
    15:00 +30°C° 0.6 mm 4 mps 722 mmHg 61%
    16:00 +30°C° 0.1 mm 4 mps 722 mmHg 64%
    17:00 +29°C° 0.1 mm 3 mps 722 mmHg 67%
    18:00 +29°C° 0.1 mm 3 mps 722 mmHg 69%
    19:00 +28°C° 0 mm 3 mps 722 mmHg 72%
    20:00 +26°C° 0 mm 3 mps 723 mmHg 75%
    21:00 +25°C° 0 mm 3 mps 723 mmHg 78%
    22:00 +25°C° 0.4 mm 3 mps 723 mmHg 80%
    23:00 +24°C° 0.4 mm 3 mps 723 mmHg 82%

    23 November, Friday

    Time Temperature Precipitation Wind Pressure Humidity
    00:00 +22°C° 0.4 mm 3 mps 723 mmHg 84%
    01:00 +22°C° 0.2 mm 3 mps 723 mmHg 85%
    02:00 +22°C° 0.2 mm 3 mps 722 mmHg 85%
    03:00 +22°C° 0.2 mm 3 mps 722 mmHg 86%
    04:00 +22°C° 0.1 mm 3 mps 722 mmHg 88%
    05:00 +22°C° 0.1 mm 3 mps 723 mmHg 89%
    06:00 +21°C° 0.1 mm 3 mps 723 mmHg 91%
    07:00 +24°C° 0.3 mm 3 mps 724 mmHg 85%
    08:00 +26°C° 0.3 mm 3 mps 724 mmHg 80%
    09:00 +27°C° 0.3 mm 4 mps 725 mmHg 75%
    10:00 +28°C° 0.7 mm 4 mps 724 mmHg 70%
    11:00 +29°C° 0.7 mm 3 mps 724 mmHg 66%
    12:00 +30°C° 0.7 mm 3 mps 724 mmHg 62%
    13:00 +31°C° 0.6 mm 3 mps 723 mmHg 61%
    14:00 +31°C° 0.6 mm 3 mps 722 mmHg 60%
    15:00 +31°C° 0.6 mm 3 mps 722 mmHg 59%
    16:00 +31°C° 0.6 mm 2 mps 722 mmHg 63%
    17:00 +30°C° 0.6 mm 2 mps 721 mmHg 67%
    18:00 +29°C° 0.6 mm 1 mps 721 mmHg 71%
    19:00 +28°C° 0 mm 2 mps 722 mmHg 74%
    20:00 +27°C° 0 mm 2 mps 722 mmHg 77%
    21:00 +26°C° 0 mm 2 mps 722 mmHg 80%
    22:00 +26°C° 0.4 mm 2 mps 722 mmHg 82%
    23:00 +25°C° 0.4 mm 2 mps 722 mmHg 83%
    Show more